EW6086 Weather Reports


time (UTC)temp
C
wind
direction
speed
KPH
gust
KPH
rain 1hr
cm
rain 24hr
cm
rain mn
cm
humidity
%
barometer
mb
20220930153246 23 90 3.2 8.0 0.00 0.00 0.00 56 1017.0
20220930153018 23 90 3.2 8.0 0.00 0.00 0.00 56 1017.1
20220930152246 23 90 3.2 8.0 0.00 0.00 0.00 57 1017.0
20220930151745 23 90 3.2 9.7 0.00 0.00 0.00 57 1017.0
20220930151240 23 90 3.2 9.7 0.00 0.00 0.00 57 1017.0
20220930151006 23 90 3.2 9.7 0.00 0.00 0.00 58 1017.0
20220930150241 22 90 4.8 9.7 0.00 0.00 0.00 58 1016.9
20220930145953 22 90 6.4 12.9 0.00 0.00 0.00 59 1016.9
20220930145446 22 90 6.4 12.9 0.00 0.00 0.00 59 1017.0
20220930144710 22 90 6.4 12.9 0.00 0.00 0.00 61 1017.0
20220930144204 21 90 6.4 12.9 0.00 0.00 0.00 62 1017.0
20220930143657 21 90 6.4 14.5 0.00 0.00 0.00 62 1017.0
20220930143422 21 90 8.0 14.5 0.00 0.00 0.00 63 1016.9
20220930142916 21 90 8.0 14.5 0.00 0.00 0.00 63 1016.9
20220930142140 20 90 8.0 14.5 0.00 0.00 0.00 64 1016.8
20220930141904 20 90 6.4 14.5 0.00 0.00 0.00 64 1016.8
20220930141127 20 90 4.8 9.7 0.00 0.00 0.00 67 1016.9
20220930140621 20 90 4.8 9.7 0.00 0.00 0.00 68 1016.9
20220930140116 19 90 3.2 12.9 0.00 0.00 0.00 69 1016.9
20220930135840 19 90 3.2 12.9 0.00 0.00 0.00 70 1016.9
20220930135103 18 90 3.2 9.7 0.00 0.00 0.00 73 1017.0
20220930134829 18 90 3.2 9.7 0.00 0.00 0.00 71 1017.0
20220930134051 18 90 1.6 8.0 0.00 0.00 0.00 73 1017.0
20220930133545 17 90 0.0 6.4 0.00 0.00 0.00 75 1017.0
20220930132027 16 90 0.0 0.0 0.00 0.00 0.00 80 1016.9
20220930131755 16 90 0.0 0.0 0.00 0.00 0.00 81 1017.0
20220930131015 16 90 0.0 0.0 0.00 0.00 0.00 82 1017.0
20220930130741 16 90 0.0 0.0 0.00 0.00 0.00 82 1017.0
20220930130007 15 90 0.0 0.0 0.00 0.00 0.00 83 1017.0
20220930125457 15 90 0.0 0.0 0.00 0.00 0.00 83 1017.0
20220930125222 15 90 0.0 0.0 0.00 0.00 0.00 83 1017.0
20220930124445 15 90 0.0 0.0 0.00 0.00 0.00 83 1017.0
20220930123939 15 90 0.0 0.0 0.00 0.00 0.00 83 1016.9
20220930122928 15 90 0.0 0.0 0.00 0.00 0.00 83 1016.9
20220930122427 15 90 0.0 0.0 0.00 0.00 0.00 83 1016.8
20220930121924 15 90 0.0 0.0 0.00 0.00 0.00 83 1016.8
20220930121424 15 90 0.0 0.0 0.00 0.00 0.00 83 1016.7
20220930120922 15 90 0.0 0.0 0.00 0.00 0.00 83 1016.7
20220930120423 15 90 0.0 0.0 0.00 0.00 0.00 83 1016.8
20220930115922 15 90 0.0 0.0 0.00 0.00 0.00 83 1016.7
20220930115421 15 90 0.0 0.0 0.00 0.00 0.00 84 1016.7
20220930114922 15 90 0.0 6.4 0.00 0.00 0.00 84 1016.6
20220930114420 15 90 0.0 6.4 0.00 0.00 0.00 85 1016.7
20220930113917 15 90 0.0 3.2 0.00 0.00 0.00 86 1016.7
20220930113646 15 90 0.0 1.6 0.00 0.00 0.00 86 1016.6
20220930112143 15 90 0.0 0.0 0.00 0.00 0.00 87 1016.6
20220930111412 15 90 0.0 0.0 0.00 0.00 0.00 87 1016.6
20220930110908 15 90 0.0 1.6 0.00 0.00 0.00 87 1016.6
20220930110408 15 90 0.0 1.6 0.00 0.00 0.00 87 1016.6
20220930105905 15 90 0.0 0.0 0.00 0.00 0.00 86 1016.5
20220930105403 15 90 0.0 0.0 0.00 0.00 0.00 86 1016.5
20220930105132 15 90 0.0 0.0 0.00 0.00 0.00 86 1016.5
20220930104632 15 90 0.0 1.6 0.00 0.00 0.00 86 1016.5
20220930103855 15 90 0.0 1.6 0.00 0.00 0.00 85 1016.5
20220930103357 15 90 0.0 4.8 0.00 0.00 0.00 85 1016.6
20220930102357 15 90 0.0 4.8 0.00 0.00 0.00 86 1016.6
20220930101852 15 90 1.6 6.4 0.00 0.00 0.00 86 1016.6
20220930101354 15 90 1.6 6.4 0.00 0.00 0.00 86 1016.6
20220930100850 15 90 1.6 4.8 0.00 0.00 0.00 85 1016.5
20220930100350 15 90 0.0 6.4 0.00 0.00 0.00 85 1016.5
20220930095852 16 90 0.0 6.4 0.00 0.00 0.00 85 1016.5
20220930095352 16 90 0.0 3.2 0.00 0.00 0.00 85 1016.5
20220930094850 16 90 0.0 3.2 0.00 0.00 0.00 86 1016.5
20220930094354 16 90 0.0 4.8 0.00 0.00 0.00 85 1016.5
20220930093847 16 90 0.0 4.8 0.00 0.00 0.00 85 1016.5
20220930093346 16 90 0.0 1.6 0.00 0.00 0.00 85 1016.5
20220930092847 16 90 0.0 1.6 0.00 0.00 0.00 85 1016.5
20220930092346 16 90 0.0 1.6 0.00 0.00 0.00 85 1016.5
20220930091847 16 90 0.0 3.2 0.00 0.00 0.00 84 1016.4
20220930091618 16 90 0.0 3.2 0.00 0.00 0.00 84 1016.4
20220930090846 16 90 0.0 1.6 0.00 0.00 0.00 84 1016.4
20220930090347 16 90 0.0 1.6 0.00 0.00 0.00 84 1016.4
20220930085617 16 90 0.0 0.0 0.00 0.00 0.00 83 1016.4
20220930084617 16 90 0.0 0.0 0.00 0.00 0.00 83 1016.5
20220930084118 17 90 0.0 0.0 0.00 0.00 0.00 83 1016.5
20220930082847 17 90 0.0 0.0 0.00 0.00 0.00 83 1016.5
20220930082347 17 90 0.0 0.0 0.00 0.00 0.00 83 1016.5
20220930081845 17 90 0.0 0.0 0.00 0.00 0.00 83 1016.5
20220930081344 17 90 0.0 0.0 0.00 0.00 0.00 83 1016.5
20220930080839 17 90 0.0 6.4 0.00 0.00 0.00 83 1016.6
20220930080333 17 90 1.6 9.7 0.00 0.00 0.00 84 1016.6
20220930075827 17 90 1.6 9.7 0.00 0.00 0.00 86 1016.5
20220930075321 17 90 0.0 6.4 0.00 0.00 0.00 90 1016.5
20220930075045 17 90 0.0 4.8 0.00 0.00 0.00 90 1016.5
20220930074309 17 90 0.0 4.8 0.00 0.00 0.00 91 1016.6
20220930074034 17 90 0.0 4.8 0.00 0.00 0.00 91 1016.7
20220930073256 17 90 0.0 1.6 0.00 0.00 0.00 91 1016.7
20220930072750 17 90 0.0 1.6 0.00 0.00 0.00 91 1016.6
20220930072245 17 90 0.0 0.0 0.00 0.00 0.00 90 1016.6
20220930071739 17 90 0.0 0.0 0.00 0.00 0.00 90 1016.6
20220930070726 18 90 0.0 0.0 0.00 0.00 0.00 90 1016.7
20220930070221 18 90 0.0 0.0 0.00 0.00 0.00 90 1016.7
20220930065714 18 90 0.0 0.0 0.00 0.00 0.00 90 1016.7
20220930065208 18 90 0.0 0.0 0.00 0.00 0.00 89 1016.7
20220930064429 19 90 0.0 0.0 0.00 0.00 0.00 88 1016.7
20220930063651 19 90 0.0 0.0 0.00 0.00 0.00 88 1016.6
20220930063145 19 90 0.0 0.0 0.00 0.00 0.00 89 1016.6
20220930062909 19 90 0.0 0.0 0.00 0.00 0.00 88 1016.6
20220930062133 19 90 0.0 0.0 0.00 0.00 0.00 89 1016.6
20220930061627 19 90 0.0 0.0 0.00 0.00 0.00 88 1016.6
20220930061120 19 90 0.0 0.0 0.00 0.00 0.00 88 1016.6
20220930060615 19 90 0.0 0.0 0.00 0.00 0.00 88 1016.7
20220930060122 19 90 0.0 0.0 0.00 0.00 0.00 87 1016.7
20220930055328 20 90 0.0 0.0 0.00 0.00 0.00 86 1016.7
20220930054822 20 90 0.0 0.0 0.00 0.00 0.00 85 1016.8
20220930054044 20 90 0.0 0.0 0.00 0.00 0.00 84 1016.8
20220930053538 20 90 0.0 0.0 0.00 0.00 0.00 84 1016.6
20220930053033 20 90 0.0 0.0 0.00 0.00 0.00 84 1016.8
20220930052021 20 90 0.0 0.0 0.00 0.00 0.00 85 1016.7
20220930051521 20 90 0.0 0.0 0.00 0.00 0.00 86 1016.8
20220930051011 20 90 0.0 0.0 0.00 0.00 0.00 87 1016.8
20220930050503 20 90 0.0 0.0 0.00 0.00 0.00 87 1016.8
20220930045451 20 90 0.0 0.0 0.00 0.00 0.00 87 1016.9
20220930045217 20 90 0.0 0.0 0.00 0.00 0.00 86 1017.0
20220930044439 20 90 0.0 0.0 0.00 0.00 0.00 86 1017.1
20220930043427 20 90 0.0 0.0 0.00 0.00 0.00 84 1017.1
20220930042922 20 90 0.0 0.0 0.00 0.00 0.00 83 1017.1
20220930042415 21 90 0.0 0.0 0.00 0.00 0.00 83 1017.1
20220930041910 21 90 0.0 0.0 0.00 0.00 0.00 83 1017.1
20220930040858 21 90 0.0 0.0 0.00 0.00 0.00 85 1017.1
20220930040623 21 90 0.0 0.0 0.00 0.00 0.00 84 1017.1
20220930035846 21 90 0.0 0.0 0.00 0.00 0.00 83 1017.1
20220930034836 21 90 0.0 0.0 0.00 0.00 0.00 83 1017.1
20220930034332 21 90 0.0 0.0 0.00 0.00 0.00 81 1017.1
20220930034103 22 90 0.0 0.0 0.00 0.00 0.00 80 1017.1
20220930033601 22 90 0.0 0.0 0.00 0.00 0.00 81 1017.1
20220930032833 23 90 0.0 0.0 0.00 0.00 0.00 80 1017.1
20220930032329 23 90 0.0 0.0 0.00 0.00 0.00 80 1017.1
20220930032059 23 90 0.0 0.0 0.00 0.00 0.00 79 1017.0
20220930030831 23 90 0.0 0.0 0.00 0.00 0.00 79 1017.0
20220930030328 23 90 0.0 0.0 0.00 0.00 0.00 78 1017.0
20220930030058 24 90 0.0 0.0 0.00 0.00 0.00 76 1017.0
20220930025328 24 90 0.0 0.0 0.00 0.00 0.00 75 1017.0
20220930024326 24 90 0.0 0.0 0.00 0.00 0.00 75 1016.9
20220930023826 24 90 0.0 0.0 0.00 0.00 0.00 75 1017.0
20220930023053 24 90 0.0 0.0 0.00 0.00 0.00 75 1017.0
20220930022323 24 90 0.0 0.0 0.00 0.00 0.00 75 1016.9
20220930021818 24 90 0.0 0.0 0.00 0.00 0.00 75 1016.9
20220930020815 24 90 0.0 0.0 0.00 0.00 0.00 76 1016.9
20220930020314 23 90 0.0 0.0 0.00 0.00 0.00 77 1017.0
20220930015811 23 90 0.0 0.0 0.00 0.00 0.00 78 1017.0
20220930015308 23 90 0.0 0.0 0.00 0.00 0.00 79 1016.9
20220930015041 24 90 0.0 0.0 0.00 0.00 0.00 78 1016.9
20220930013804 24 202 0.0 0.0 0.00 0.00 0.00 78 1016.8
20220930013304 24 90 0.0 0.0 0.00 0.00 0.00 77 1016.8
20220930013037 24 90 0.0 0.0 0.00 0.00 0.00 77 1016.8
20220930012305 24 90 0.0 1.6 0.00 0.00 0.00 77 1016.7
20220930011306 24 90 0.0 0.0 0.00 0.00 0.00 76 1016.7
20220930011032 24 90 0.0 0.0 0.00 0.00 0.00 76 1016.6
20220930010313 24 90 0.0 0.0 0.00 0.00 0.00 76 1016.5
20220930005801 24 90 0.0 0.0 0.00 0.00 0.00 76 1016.5
20220930005532 25 90 0.0 0.0 0.00 0.00 0.00 75 1016.5
20220930004801 25 90 0.0 0.0 0.00 0.00 0.00 75 1016.4
20220930004301 25 90 0.0 0.0 0.00 0.00 0.00 74 1016.4
20220930003801 25 90 0.0 0.0 0.00 0.00 0.00 73 1016.5
20220930003300 25 90 0.0 0.0 0.00 0.00 0.00 72 1016.5
20220930002802 25 90 0.0 0.0 0.00 0.00 0.00 72 1016.5
20220930002300 25 90 0.0 0.0 0.00 0.00 0.00 71 1016.5
20220930001802 25 90 0.0 0.0 0.00 0.00 0.00 70 1016.4
20220930001300 25 90 0.0 0.0 0.00 0.00 0.00 70 1016.5
20220930000801 25 90 0.0 0.0 0.00 0.00 0.00 69 1016.5
20220930000533 26 90 0.0 0.0 0.00 0.00 0.00 68 1016.5
20220929235801 26 90 0.0 0.0 0.00 0.00 0.00 68 1016.4
20220929235532 26 90 0.0 0.0 0.00 0.00 0.00 68 1016.5
20220929234800 26 90 0.0 0.0 0.00 0.00 0.00 66 1016.5
20220929234529 26 90 0.0 3.2 0.00 0.00 0.00 65 1016.4
20220929233752 26 90 0.0 3.2 0.00 0.00 0.00 64 1016.4
20220929233246 26 90 0.0 3.2 0.00 0.00 0.00 63 1016.4
20220929232741 26 90 0.0 6.4 0.00 0.00 0.00 62 1016.4
20220929232234 26 90 0.0 6.4 0.00 0.00 0.00 60 1016.5
20220929231728 27 90 1.6 8.0 0.00 0.00 0.00 59 1016.5
20220929230455 27 90 0.0 6.4 0.00 0.00 0.00 59 1016.6
20220929225936 27 90 1.6 6.4 0.00 0.00 0.00 57 1016.7
20220929225200 27 90 1.6 9.7 0.00 0.00 0.00 59 1016.7
20220929224652 27 90 1.6 9.7 0.00 0.00 0.00 58 1016.8
20220929224417 27 90 1.6 6.4 0.00 0.00 0.00 59 1016.8
20220929223912 27 90 1.6 8.0 0.00 0.00 0.00 59 1016.8
20220929223406 27 90 1.6 8.0 0.00 0.00 0.00 58 1016.9
20220929221617 27 90 1.6 8.0 0.00 0.00 0.00 55 1016.9
20220929221342 27 90 1.6 9.7 0.00 0.00 0.00 57 1016.9
20220929220604 27 90 1.6 9.7 0.00 0.00 0.00 55 1017.0
20220929220058 27 90 1.6 9.7 0.00 0.00 0.00 57 1017.1
20220929215824 27 90 1.6 9.7 0.00 0.00 0.00 57 1017.1
20220929215047 27 90 1.6 8.0 0.00 0.00 0.00 56 1017.1
20220929214813 27 90 1.6 6.4 0.00 0.00 0.00 56 1017.2
20220929214306 28 90 0.0 6.4 0.00 0.00 0.00 53 1017.2
20220929213759 28 90 1.6 8.0 0.00 0.00 0.00 54 1017.2
20220929213023 28 90 1.6 8.0 0.00 0.00 0.00 54 1017.3
20220929212516 28 90 1.6 6.4 0.00 0.00 0.00 53 1017.4
20220929212010 28 90 0.0 6.4 0.00 0.00 0.00 54 1017.4
20220929211504 28 90 0.0 4.8 0.00 0.00 0.00 53 1017.4
20220929210958 28 90 1.6 6.4 0.00 0.00 0.00 51 1017.5
20220929210452 28 202 0.0 6.4 0.00 0.00 0.00 54 1017.5
20220929205947 28 90 0.0 4.8 0.00 0.00 0.00 53 1017.6
20220929205441 28 90 0.0 4.8 0.00 0.00 0.00 52 1017.7
20220929204934 29 90 0.0 1.6 0.00 0.00 0.00 45 1017.7
20220929204659 29 90 0.0 1.6 0.00 0.00 0.00 46 1017.7
20220929203922 30 90 0.0 9.7 0.00 0.00 0.00 39 1017.8
20220929203417 30 90 0.0 9.7 0.00 0.00 0.00 40 1017.8
20220929202911 30 90 0.0 0.0 0.00 0.00 0.00 40 1017.9
20220929202635 30 90 0.0 0.0 0.00 0.00 0.00 39 1018.0
20220929201859 29 90 0.0 0.0 0.00 0.00 0.00 40 1018.1
20220929201406 29 90 0.0 0.0 0.00 0.00 0.00 42 1018.2
20220929201117 29 90 0.0 1.6 0.00 0.00 0.00 42 1018.3
20220929200341 29 90 0.0 1.6 0.00 0.00 0.00 41 1018.4
20220929195834 29 90 0.0 6.4 0.00 0.00 0.00 41 1018.6
20220929195328 29 90 0.0 6.4 0.00 0.00 0.00 39 1018.7
20220929195054 29 90 0.0 1.6 0.00 0.00 0.00 41 1018.8
20220929194042 29 90 0.0 0.0 0.00 0.00 0.00 41 1019.0
20220929193535 29 90 0.0 3.2 0.00 0.00 0.00 40 1019.1
20220929193029 29 90 0.0 8.0 0.00 0.00 0.00 39 1019.2
20220929192252 29 90 0.0 8.0 0.00 0.00 0.00 42 1019.3
20220929191746 29 90 0.0 1.6 0.00 0.00 0.00 41 1019.4
20220929191241 29 90 0.0 8.0 0.00 0.00 0.00 43 1019.6
20220929190734 28 90 0.0 8.0 0.00 0.00 0.00 43 1019.6
20220929190228 28 27 1.6 4.8 0.00 0.00 0.00 42 1019.7
20220929185724 28 90 1.6 9.7 0.00 0.00 0.00 42 1019.8
20220929185217 28 90 1.6 9.7 0.00 0.00 0.00 44 1019.9
20220929184943 28 90 0.0 6.4 0.00 0.00 0.00 42 1020.0
20220929184204 28 90 0.0 6.4 0.00 0.00 0.00 45 1020.1
20220929183658 28 90 0.0 6.4 0.00 0.00 0.00 42 1020.2
20220929183423 28 90 0.0 6.4 0.00 0.00 0.00 44 1020.3
20220929182141 28 90 0.0 6.4 0.00 0.00 0.00 43 1020.4
20220929181634 28 90 0.0 4.8 0.00 0.00 0.00 42 1020.5
20220929181400 28 90 0.0 4.8 0.00 0.00 0.00 45 1020.6
20220929180859 28 90 1.6 9.7 0.00 0.00 0.00 44 1020.7
20220929180129 28 90 0.0 9.7 0.00 0.00 0.00 43 1020.7
20220929175628 28 90 0.0 6.4 0.00 0.00 0.00 46 1021.0
20220929175127 28 90 0.0 6.4 0.00 0.00 0.00 44 1021.0
20220929174628 27 90 0.0 8.0 0.00 0.00 0.00 44 1021.1
20220929174401 28 90 0.0 8.0 0.00 0.00 0.00 47 1021.1
20220929173628 27 90 1.6 8.0 0.00 0.00 0.00 45 1021.2
20220929173128 27 90 0.0 8.0 0.00 0.00 0.00 46 1021.3
20220929172628 27 90 0.0 8.0 0.00 0.00 0.00 47 1021.4
20220929172400 27 90 0.0 8.0 0.00 0.00 0.00 48 1021.4
20220929171629 27 90 0.0 3.2 0.00 0.00 0.00 48 1021.4
20220929170858 27 90 0.0 4.8 0.00 0.00 0.00 50 1021.5
20220929170140 27 90 0.0 4.8 0.00 0.00 0.00 51 1021.5
20220929165628 27 90 0.0 4.8 0.00 0.00 0.00 49 1021.6
20220929165127 27 90 0.0 6.4 0.00 0.00 0.00 49 1021.7
20220929164628 27 90 0.0 9.7 0.00 0.00 0.00 50 1021.8
20220929164359 27 90 1.6 9.7 0.00 0.00 0.00 52 1021.8
20220929163628 27 90 1.6 6.4 0.00 0.00 0.00 52 1021.9
20220929163359 27 90 0.0 6.4 0.00 0.00 0.00 50 1021.9
20220929162627 27 90 0.0 6.4 0.00 0.00 0.00 52 1021.9
20220929162127 27 90 1.6 6.4 0.00 0.00 0.00 51 1022.0
20220929161859 27 90 1.6 9.7 0.00 0.00 0.00 54 1022.0
20220929161126 26 90 1.6 9.7 0.00 0.00 0.00 55 1022.0
20220929160626 26 90 3.2 0.0 0.00 0.00 0.00 56 1022.0
20220929155739 26 90 3.2 12.9 0.00 0.00 0.00 58 1022.1
20220929154740 26 90 4.8 9.7 0.00 0.00 0.00 59 1022.0
20220929154241 26 90 4.8 9.7 0.00 0.00 0.00 59 1022.1
20220929153737 25 90 4.8 12.9 0.00 0.00 0.00 59 1022.1